TimeEDT,TemperatureF,Dew PointF,Humidity,Sea Level PressureIn,VisibilityMPH,Wind Direction,Wind SpeedMPH,Gust SpeedMPH,PrecipitationIn,Events,Conditions,WindDirDegrees,DateUTC
12:00 AM,43.0,40.3,90,30.09,-9999.0,Calm,Calm,-,N/A,,Unknown,0,2012-10-08 04:00:00
1:00 AM,41.7,40.1,94,30.09,-9999.0,Calm,Calm,-,N/A,,Unknown,0,2012-10-08 05:00:00
2:00 AM,42,41,95,30.10,,Calm,Calm,,,,,,2012-10-08 06:00:00
2:00 AM,42.3,41.0,95,30.10,-9999.0,Calm,Calm,-,N/A,,Unknown,0,2012-10-08 06:00:00
3:00 AM,41.9,41.2,97,30.10,-9999.0,South,1.2,-,N/A,,Unknown,170,2012-10-08 07:00:00
4:00 AM,41.5,40.6,97,30.11,-9999.0,SW,1.2,-,N/A,,Unknown,220,2012-10-08 08:00:00
5:00 AM,37.9,37.0,97,30.13,-9999.0,WNW,2.3,-,N/A,,Unknown,300,2012-10-08 09:00:00
6:00 AM,34.5,33.8,97,30.14,-9999.0,Calm,Calm,-,N/A,,Unknown,0,2012-10-08 10:00:00
7:00 AM,34.0,33.4,98,30.17,-9999.0,SW,1.2,-,N/A,,Unknown,220,2012-10-08 11:00:00
8:00 AM,39,38,97,30.20,,NNW,1.2,,,,,340,2012-10-08 12:00:00
8:00 AM,38.8,38.5,99,30.20,-9999.0,NNW,1.2,-,N/A,,Unknown,340,2012-10-08 12:00:00
9:00 AM,46.2,37.4,71,30.22,-9999.0,SE,1.2,-,N/A,,Unknown,140,2012-10-08 13:00:00
10:00 AM,46.9,39.6,76,30.23,-9999.0,SSW,3.5,-,N/A,,Unknown,210,2012-10-08 14:00:00
11:00 AM,50.2,36.1,59,30.23,-9999.0,WSW,2.3,-,N/A,,Unknown,240,2012-10-08 15:00:00
12:00 PM,52.7,37.4,56,30.23,-9999.0,South,5.8,-,N/A,,Unknown,180,2012-10-08 16:00:00
1:00 PM,54.1,34.0,47,30.23,-9999.0,SW,3.5,-,N/A,,Unknown,220,2012-10-08 17:00:00
2:00 PM,55,34,32,30.21,,SSW,5.8,,,,,210,2012-10-08 18:00:00
2:00 PM,54.9,33.6,45,30.21,-9999.0,SSW,5.8,-,N/A,,Unknown,210,2012-10-08 18:00:00
3:00 PM,56.1,31.5,39,30.21,-9999.0,WSW,5.8,-,N/A,,Unknown,250,2012-10-08 19:00:00
4:00 PM,56.1,31.8,40,30.21,-9999.0,WNW,4.6,-,N/A,,Unknown,300,2012-10-08 20:00:00
5:00 PM,54.7,33.8,45,30.21,-9999.0,WSW,3.5,-,N/A,,Unknown,250,2012-10-08 21:00:00
7:00 PM,42.6,40.3,91,30.24,-9999.0,Calm,Calm,-,N/A,,Unknown,0,2012-10-08 23:00:00
8:00 PM,40,38,89,30.25,,East,1.2,,,,,100,2012-10-09 00:00:00
8:00 PM,39.9,37.9,93,30.25,-9999.0,East,1.2,-,N/A,,Unknown,100,2012-10-09 00:00:00
9:00 PM,36.9,35.2,94,30.26,-9999.0,Calm,Calm,-,N/A,,Unknown,0,2012-10-09 01:00:00
10:00 PM,36.5,35.6,97,30.26,-9999.0,ENE,1.2,-,N/A,,Unknown,60,2012-10-09 02:00:00
11:00 PM,34.5,33.8,97,30.27,-9999.0,ENE,1.2,-,N/A,,Unknown,60,2012-10-09 03:00:00